Simultaneous Nadir Overpasses (SNOs) Predictions

Prediction of SNOs between AQUA and METOP-B Satellite Orbit:

Table of predicted SNOs for the next 14.0 days since TLE Epoch: 12/18/2021
Index Date (AQUA) Time (AQUA) Lat,Lon (AQUA) SZA (AQUA ) Date (METOP-B) Time (METOP-B) Lat,Lon (METOP-B) SZA (METOP-B ) Distance(km) Time Diff (sec)
1 12/19/2021 22:25:33 73.79,-162.02 97.18 12/19/2021 22:24:48 73.78,-161.98 97.18 1.32 45
2 12/19/2021 23:15:00 -73.86, 5.47 82.75 12/19/2021 23:15:28 -73.85, 5.51 82.76 1.52 28
3 12/22/2021 17:59:50 73.80, -95.61 97.20 12/22/2021 17:59:08 73.80, -95.53 97.21 2.55 42
4 12/22/2021 18:49:17 -73.86, 71.89 82.73 12/22/2021 18:49:48 -73.87, 71.97 82.73 2.72 31
5 12/25/2021 13:34:07 73.77, -29.11 97.12 12/25/2021 13:33:30 73.77, -29.20 97.13 2.74 37
6 12/25/2021 14:23:34 -73.83, 138.40 82.82 12/25/2021 14:24:10 -73.84, 138.31 82.80 3.30 36
7 12/28/2021 09:08:25 73.80, 37.25 97.05 12/28/2021 09:07:51 73.78, 37.24 97.04 2.48 34
8 12/28/2021 09:57:52 -73.86,-155.23 82.90 12/28/2021 09:58:31 -73.86,-155.25 82.90 0.49 39
9 12/31/2021 04:42:41 73.80, 103.70 96.88 12/31/2021 04:42:11 73.79, 103.67 96.88 1.20 30
10 12/31/2021 05:32:08 -73.85, -88.77 83.08 12/31/2021 05:32:51 -73.87, -88.81 83.06 2.68 43



Historial Predications of SNOs between AQUA and METOP-B
